Simultaneous Nadir Overpasses (SNOs) Predictions

Prediction of SNOs over PacNW region [( 10.00, 139.50) to ( 22.70, 165.60)] between AQUA and NPP Satellites:

Table of predicted SNOs over PacNW region for the next 30.0 days since TLE Epoch: 5/7/2018
Index Date (AQUA) Time (AQUA) AQUA Lat,Lon Date (NPP) Time (NPP) NPP Lat,Lon Distance(km) Time Diff (sec)
1 05/11/2018 15:10:28 22.63, 159.84 05/11/2018 15:10:56 23.21, 157.27 271.46 28
2 05/19/2018 15:59:51 22.59, 147.48 05/19/2018 16:01:41 23.22, 144.58 304.44 110
3 05/27/2018 15:10:20 22.60, 159.85 05/27/2018 15:10:57 23.20, 157.27 272.45 37




NCC Satellite Simultaneous Nadir Overpasses (SNOs) Prediction Service
